[ show orbit diagram ]
Orbital Elements at Epoch 2459000.5 (2020-May-31.0) TDB
Reference: JPL 34 (heliocentric ecliptic J2000)
Element | Value | Uncertainty (1-sigma) | Units |
e | .1072014431948059 | 3.5337e-08 | |
a | 2.979435537115282 | 1.5559e-08 | au |
q | 2.660035747630632 | 1.044e-07 | au |
i | 9.289559823150599 | 3.5898e-06 | deg |
node | 209.2420255652452 | 2.3546e-05 | deg |
peri | 131.9505979633726 | 2.8407e-05 | deg |
M | 179.466397252582 | 1.6942e-05 | deg |
tp | 2458064.059774489228 (2017-Nov-06.55977449) | 8.6667e-05 | TDB |
period | 1878.449037506534 5.14 | 1.4714e-05 4.028e-08 | d yr |
n | .1916474670390134 | 1.5012e-09 | deg/d |
Q | 3.298835326599932 | 1.7227e-08 | au |
|
| | Orbit Determination Parameters
Additional Information
|
[ show covariance matrix ]
Physical Parameter Table
Parameter |
Symbol |
Value |
Units |
Sigma |
Reference |
Notes |
absolute magnitude |
H |
13.0 |
|
n/a |
MPO384879 |
|
diameter |
diameter |
9.288 |
km |
0.098 |
urn:nasa:pds:neowise_diameters_albedos::2.0[mainbelt] (http://adsabs.harvard.edu/abs/2011ApJ...741...68M) |
|
rotation period |
rot_per |
6.674 |
h |
n/a |
LCDB (Rev. 2020-October); Warner et al., 2009 |
Published Reference List: [Aznar, A.M.; Licandro, J.; Serra-Ricart, M. (2019) Minor Planet Bull. 46, 395-399.] |
geometric albedo |
albedo |
0.170 |
|
0.014 |
urn:nasa:pds:neowise_diameters_albedos::2.0[mainbelt] (http://adsabs.harvard.edu/abs/2011ApJ...741...68M) |
|
|
14105 Nakadai | Discovered 1997 Oct. 6 by K. Endate and K. Watanabe at Kitami. |
Tatsuya Nakadai (b. 1932) is a prominent Japanese actor who has received awards from the Cannes, Venice, and Berlin film festivals. He has presided over a private school, Mumei-juku, to coach younger actors. |
NOTE: some special characters may not display properly (any characters within {} are an attempt to place the proper accent above a character) |
Reference: MPC batch dated 2013-07-22 | Last Updated: 2014-08-13 |
|
[ show close-approach data ]
|
|